TimeEDT,TemperatureF,Dew PointF,Humidity,Sea Level PressureIn,VisibilityMPH,Wind Direction,Wind SpeedMPH,Gust SpeedMPH,PrecipitationIn,Events,Conditions,WindDirDegrees,DateUTC
12:53 AM,64.9,60.1,84,29.95,10.0,Calm,Calm,-,N/A,,Clear,0,2013-07-12 04:53:00
1:53 AM,64.0,61.0,90,29.96,10.0,WSW,4.6,-,N/A,,Clear,240,2013-07-12 05:53:00
2:53 AM,64.0,61.0,90,29.97,10.0,WSW,3.5,-,N/A,,Clear,240,2013-07-12 06:53:00
3:53 AM,64.9,61.0,87,29.98,10.0,Calm,Calm,-,N/A,,Clear,0,2013-07-12 07:53:00
4:53 AM,66.0,60.1,81,30.00,10.0,Calm,Calm,-,N/A,,Clear,0,2013-07-12 08:53:00
5:53 AM,68.0,57.9,70,30.01,10.0,ENE,5.8,-,N/A,,Clear,60,2013-07-12 09:53:00
6:53 AM,69.1,59.0,70,30.03,10.0,ENE,5.8,-,N/A,,Scattered Clouds,60,2013-07-12 10:53:00
7:53 AM,70.0,57.9,65,30.04,10.0,NE,9.2,-,N/A,,Scattered Clouds,40,2013-07-12 11:53:00
8:53 AM,73.0,59.0,61,30.06,10.0,NE,12.7,19.6,N/A,,Clear,40,2013-07-12 12:53:00
9:53 AM,73.9,59.0,59,30.06,10.0,ENE,12.7,-,N/A,,Partly Cloudy,60,2013-07-12 13:53:00
10:53 AM,75.0,60.1,60,30.07,10.0,East,9.2,-,N/A,,Scattered Clouds,80,2013-07-12 14:53:00
11:53 AM,77.0,62.1,60,30.07,10.0,ENE,8.1,18.4,0.00,,Clear,60,2013-07-12 15:53:00
12:53 PM,77.0,63.0,62,30.07,10.0,ENE,8.1,-,N/A,,Mostly Cloudy,60,2013-07-12 16:53:00
1:53 PM,77.0,63.0,62,30.07,10.0,East,11.5,-,N/A,,Overcast,80,2013-07-12 17:53:00
2:53 PM,79.0,63.0,58,30.07,10.0,NE,9.2,16.1,N/A,,Mostly Cloudy,50,2013-07-12 18:53:00
3:53 PM,78.1,64.9,64,30.06,10.0,East,8.1,-,N/A,,Mostly Cloudy,90,2013-07-12 19:53:00
4:53 PM,77.0,64.9,66,30.07,10.0,ENE,9.2,-,N/A,,Mostly Cloudy,60,2013-07-12 20:53:00
5:53 PM,77.0,64.0,64,30.08,10.0,East,12.7,17.3,0.00,,Partly Cloudy,80,2013-07-12 21:53:00
6:53 PM,75.0,64.0,69,30.09,10.0,East,10.4,-,0.00,,Mostly Cloudy,100,2013-07-12 22:53:00
7:53 PM,73.9,63.0,68,30.11,10.0,NE,10.4,-,0.00,Rain,Light Rain,50,2013-07-12 23:53:00
8:53 PM,72.0,63.0,73,30.12,10.0,ENE,10.4,-,0.00,,Overcast,60,2013-07-13 00:53:00
9:37 PM,69.8,62.6,78,30.14,5.0,ENE,8.1,-,0.04,Rain,Light Rain,60,2013-07-13 01:37:00
9:53 PM,68.0,61.0,78,30.13,10.0,ENE,6.9,-,0.04,,Overcast,70,2013-07-13 01:53:00
10:53 PM,64.0,59.0,84,30.16,2.5,East,8.1,-,0.03,Rain,Rain,80,2013-07-13 02:53:00
10:58 PM,64.4,60.8,88,30.17,1.8,ENE,8.1,-,0.02,Rain,Heavy Rain,70,2013-07-13 02:58:00
11:12 PM,64.4,60.8,88,30.16,2.5,ENE,10.4,-,0.06,Rain,Light Rain,60,2013-07-13 03:12:00
11:21 PM,64.4,60.8,88,30.17,6.0,ENE,6.9,-,0.06,Rain,Light Rain,70,2013-07-13 03:21:00
11:53 PM,64.0,60.1,87,30.16,10.0,ENE,8.1,-,0.06,,Overcast,60,2013-07-13 03:53:00